Flag for U.S.A. Weather past 2 weeks in Louisville, Kentucky, U.S.A.

Now
93 °F

Passing clouds.


Feels Like: 94 °F
Forecast: 71 / 92 °F
Wind: 7 mph from Southwest

Location: Standiford Field

Current Time: Sep 4, 2015 at 5:39:53 PM

Latest Report: Sep 4, 2015 at 4:56 PM


Visibility: 7 mi

Pressure: 29.97 "Hg

Humidity: 37%

Dew point: 63 °F

Location of LouisvilleLocation

Historic Weather in Louisville — Graph

°F

Louisville temperature yesterday

Maximum temperature yesterday: 93 °F (at 2:56 PM)
Minimum temperature yesterday: 71 °F (at 6:56 AM)
Average temperature yesterday: 83 °F

Past Weeks' High & Low Weather Summary

 TemperatureHumidityPressure
High93 °F (Sep 3, 2:56 PM)90% (Aug 31, 6:56 AM)30.17 "Hg (Aug 31, 6:56 AM)
Low59 °F (Aug 25, 6:56 AM)36% (Aug 24, 4:56 PM)29.87 "Hg (Aug 23, 6:56 PM)
Average76 °F62%30.05 "Hg
* Reported Aug 20 3:56 PM — Sep 4 3:56 PM, Louisville, Weather by CustomWeather, © 2015

Note: Actual official high and low records may vary slightly from our data, if they occured in-between our weather recording intervals... More about our weather records

Advertising

Louisville weather history for previous 24 hours

 ConditionsComfort  
Time TempWeatherWind HumidityBarometerVisibility
3:56 PM
Fri, Sep 4
92 °FHaze.5 mph38%29.98 "Hg6 mi
2:56 PM92 °FHaze.5 mph38%30.00 "Hg6 mi
1:56 PM93 °FHaze.3 mph40%30.01 "Hg6 mi
12:56 PM92 °FPassing clouds.No wind41%30.02 "Hg7 mi
11:56 AM90 °FPassing clouds.5 mph45%30.03 "Hg7 mi
10:56 AM87 °FSunny.No wind51%30.03 "Hg4 mi
9:56 AM80 °FSunny.No wind67%30.02 "Hg4 mi
8:56 AM75 °FSunny.3 mph79%30.03 "Hg3 mi
7:56 AM73 °FClear.No wind84%30.01 "Hg3 mi
6:56 AM73 °FClear.3 mph81%30.00 "Hg5 mi
5:56 AM74 °FClear.No wind82%29.98 "Hg5 mi
4:56 AM75 °FClear.3 mph79%29.97 "Hg5 mi
3:56 AM74 °FClear.3 mph82%29.96 "Hg5 mi
2:56 AM76 °FClear.No wind77%29.95 "Hg6 mi
1:56 AM77 °FClear.No wind74%29.95 "Hg6 mi
12:56 AM79 °FClear.No wind67%29.95 "Hg6 mi
11:56 PM
Thu, Sep 3
81 °FClear.No wind62%29.94 "Hg7 mi
10:56 PM82 °FClear.3 mph63%29.95 "Hg7 mi
9:56 PM85 °FClear.3 mph50%29.94 "Hg7 mi
8:56 PM84 °FSunny.6 mph53%29.92 "Hg7 mi
7:56 PM87 °FPassing clouds.7 mph46%29.91 "Hg7 mi
6:56 PM90 °FPassing clouds.3 mph41%29.90 "Hg7 mi
5:56 PM92 °FPassing clouds.3 mph40%29.91 "Hg7 mi
Weather by CustomWeather, © 2015

See weather overviewHow to use our weather pages